Weather Roundup
Issued by NWS Chicago, IL

Home | Current Version | Previous Version | Text Only | Print | Product List | Glossary On
Versions: 1 2 3 4 5 6 7 8 9 10 11 12 13 14 15 16 17 18 19 20 21 22 23 24 25 26 27 28 29 30 31 32 33 34 35 36 37 38 39 40 41 42 43 44 45 46 47 48 49 50
000
NZUS59 KLOT 231712
HRRLOT

CHICAGO AREA WEATHER ROUNDUP
NATIONAL WEATHER SERVICE CHICAGO/ROMEOVILLE IL
1100 AM CST THU FEB 23 2017

NOTE: "FAIR" INDICATES FEW OR NO CLOUDS BELOW 12,000 FEET WITH NO
SIGNIFICANT WEATHER AND/OR OBSTRUCTIONS TO VISIBILITY.

* THESE STATIONS ARE NOT UNDER NWS QUALITY CONTROL. THEY ALSO MAY NOT
  REPORT WEATHER SUCH AS PRECIPITATION OR FOG.

ILZ005-006-012>014-019>023-231800-
NORTHEAST ILLINOIS

CITY           SKY/WX    TMP DP  RH WIND       PRES   REMARKS
OHARE          CLOUDY    45  37  73 NE12      29.84R
MIDWAY         CLOUDY    48  39  71 N12       29.84R
AURORA         CLOUDY    52  41  66 NE9       29.81R
LANSING*       CLOUDY    48  43  81 NE14      29.82R
JOLIET*        PTSUNNY   55  44  68 N8        29.81R
WAUKEGAN       CLOUDY    41  36  82 NE10      29.84R
DUPAGE AIRPORT CLOUDY    51  40  65 NE12G18   29.82R
WHEELING       CLOUDY    41  35  79 NE13      29.86R
KANKAKEE*      CLOUDY    55  47  72 N7        29.80R
MORRIS*        CLOUDY    52  44  72 N6        29.80R
LEWIS AIRPORT* PTSUNNY   53  46  74 E6        29.81R
NORTHERLY ISL    N/A     44  39  82 N7          N/A
$$

WIZ051-052-058>065-066-070>072-231800-
SOUTHEAST WISCONSIN

CITY           SKY/WX    TMP DP  RH WIND       PRES   REMARKS
MILWAUKEE      CLOUDY    42  35  76 NE15G25   29.82S
KENOSHA*       CLOUDY    43  36  76 NE13      29.84R
RACINE*        CLOUDY    41  35  79 NE14      29.85R
WAUKESHA       CLOUDY    41  37  87 N8        29.82R
WEST BEND      CLOUDY    41  36  81 N8        29.83R
$$

INZ001>003-010>013-019-020-231800-
NORTHWEST INDIANA

CITY           SKY/WX    TMP DP  RH WIND       PRES   REMARKS
GARY*          CLOUDY    48  39  71 N17       29.82R
MICHIGAN CITY* NOT AVBL
RENSSELAER*    NOT AVBL
VALPARAISO     MOSUNNY   53  44  71 N10       29.79S
$$

LMZ740>746-231800-
SOUTHERN LAKE MICHIGAN

STATION/POSITION TIME  SKY/WX   TEMP WIND        PRES    VSBY
                                AIR  DIR/SP/G
                 (UTC)          (F)  (DEG/KT/KT) (MB)    (MI)
HARRISON CRIB    1640            41   20/  8/  8   N/A
BURNHAM HARBOR   1700            44  360/  6/ 11   N/A
CALUMET HARBOR   1648            44  350/ 10/ 14 1009.9R
BURNS HARBOR     1640            41   50/  6/  7 1010.2S
MICHIGAN CITY    1640            39   20/  6/  7   N/A
$$

ABBREVIATIONS USED IN REMARKS
   TC - TEMPERATURE IN CELSIUS
  WCI - WIND CHILL INDEX
   HX - HEAT INDEX
  VSB - VISIBILITY
$$



USA.gov is the U.S. government's official web portal to all federal, state and local government web resources and services.